Flag for Hungary Weather past 2 weeks in Debrecen, Hungary

Now
81 °F

Partly sunny.


Feels Like: 82 °F
Forecast: 67 / 89 °F
Wind: 8 mph from Northeast

Location: Debrecen Airport

Current Time: Jul 31, 2014 at 2:55:13 PM

Latest Report: Jul 31, 2014 at 1:45 PM


Visibility: N/A

Pressure: 29.83 "Hg

Humidity: 58%

Dew point: 64 °F

Location of DebrecenLocation

Historic Weather in Debrecen — Graph

°F

Debrecen temperature yesterday

Maximum temperature yesterday: 84 °F (at 2:15 PM)
Minimum temperature yesterday: 63 °F (at 4:45 AM)
Average temperature yesterday: 77 °F

Past Weeks' High & Low Weather Summary

 TemperatureHumidityPressure
High90 °F (Jul 21, 2:45 PM)100% (Jul 25, 5:15 AM)30.04 "Hg (Jul 25, 5:15 AM)
Low61 °F (Jul 25, 5:15 AM)33% (Jul 16, 3:45 PM)29.74 "Hg (Jul 21, 6:45 PM)
Average75 °F67%29.89 "Hg
* Reported Jul 16 1:15 PM — Jul 31 1:15 PM, Debrecen, Weather by CustomWeather, © 2014

Note: Actual official high and low records may vary slightly from our data, if they occured in-between our weather recording intervals... More about our weather records

Advertising

Debrecen weather history for previous 24 hours

 ConditionsComfort  
Time TempWeatherWind HumidityBarometerVisibility
1:15 PM
Jul 31
81 °FScattered clouds.8 mph54%29.83 "HgN/A
12:45 PM81 °FPassing clouds.6 mph54%29.83 "HgN/A
12:15 PM79 °FPassing clouds.3 mph65%29.86 "HgN/A
11:45 AM79 °FScattered clouds.3 mph61%29.83 "HgN/A
11:15 AM77 °FPartly sunny.2 mph65%29.83 "HgN/A
10:45 AM75 °FPartly sunny.7 mph69%29.83 "HgN/A
10:15 AM73 °FPartly sunny.7 mph74%29.83 "HgN/A
9:45 AM72 °FScattered clouds.9 mph78%29.83 "HgN/A
9:15 AM70 °FPartly sunny.7 mph88%29.83 "HgN/A
8:45 AM68 °FScattered clouds.6 mph94%29.83 "HgN/A
8:15 AM68 °FSprinkles. Scattered clouds.8 mph94%29.86 "HgN/A
7:45 AM68 °FSprinkles. Scattered clouds.1 mph94%29.83 "HgN/A
7:15 AM68 °FLight rain. Mostly cloudy.3 mph94%29.83 "HgN/A
6:45 AM66 °FPartly sunny.5 mph100%29.83 "HgN/A
6:15 AM66 °FPartly sunny.5 mph100%29.83 "HgN/A
5:45 AM66 °FPartly cloudy.3 mph100%29.83 "HgN/A
5:15 AM66 °FSprinkles. Partly cloudy.2 mph100%29.83 "HgN/A
4:45 AM68 °FSprinkles. Partly cloudy.9 mph94%29.83 "HgN/A
3:52 AM70 °FMild.16 mph88%29.83 "HgN/A
8:45 PM
Jul 30
77 °FSunny.7 mph65%29.77 "Hg10 mi
8:15 PM79 °FSunny.6 mph61%29.77 "Hg10 mi
7:45 PM81 °FSunny.7 mph58%29.77 "Hg10 mi
7:15 PM82 °FSunny.5 mph58%29.77 "Hg10 mi
6:45 PM84 °FSunny.6 mph51%29.77 "Hg10 mi
6:15 PM84 °FSunny.7 mph51%29.77 "Hg10 mi
5:45 PM84 °FSunny.8 mph51%29.77 "Hg10 mi
5:15 PM84 °FSunny.8 mph51%29.77 "Hg10 mi
4:45 PM84 °FPassing clouds.8 mph51%29.80 "HgN/A
4:15 PM84 °FPassing clouds.8 mph51%29.80 "HgN/A
3:45 PM84 °FPassing clouds.8 mph51%29.80 "HgN/A
3:15 PM84 °FPassing clouds.6 mph51%29.80 "HgN/A
2:45 PM84 °FPassing clouds.9 mph55%29.83 "HgN/A
2:15 PM84 °FScattered clouds.8 mph55%29.83 "HgN/A
Weather by CustomWeather, © 2014

See weather overviewHow to use our weather pages